sat.trackr.live / text

‹ back to catalog

STARLINK-11669 [DTC]

NORAD 63548 · 2025-075A

PAYLOAD ACTIVE UNKNOWN

§ Identity

Operator
Country
US
Launch date
2025-04-13
Launch site
AFETR
Launch vehicle
Mass (kg)
RCS (m²)

Purposes: comms

External: N2YO · Heavens-Above · Gunter

§ Orbital elements

Epoch: 2026-05-25T02:49:42.456000Z

Period
91.67 min
Inclination
43.0008°
Eccentricity
0.0002130
Mean motion
15.70897184 rev/d
Perigee alt
354.9 km
Apogee alt
357.8 km
Semi-major
6,734.5 km
B*
1.1717e-3
RAAN
52.6842°
Arg perigee
269.0832°
Mean anomaly
90.9791°
Rev number
6,527

§ Raw data

STARLINK-11669 [DTC]1 63548U 25075A   26145.11785250  .00153066  00000+0  11717-2 0  99912 63548  43.0008  52.6842 0002130 269.0832  90.9791 15.70897184 65271

JSON: /api/v1/satellites/63548 · /tle

For live sub-satellite position, see the globe view (requires WebGL).

§ Visibility from observer

Set your observer location to see the next 7 days of passes ≥ 10°. The values pass through the URL so the page stays shareable.

No JS? Fill the form by hand. The geolocation button needs JavaScript.